Location: Unspecified
(0.0000°N, 0.0000°E)
Time: 18:59:54
(UTC+00:00)

Vanguard 2 Rocket - Pass Details

Date: 26 January 2020
Orbit: 554 x 3327 km, 32.9° (Epoch: 20 February)

Event Time Altitude Azimuth Distance (km) Brightness Sun altitude
Rises 20:25:11 0° 221° (SW) 6,690 12.2 -31.2°
Reaches altitude 10° 20:32:48 10° 203° (SSW) 5,097 11.2 -33.0°
Maximum altitude 20:40:22 16° 170° (S) 3,875 10.2 -34.7°
Enters shadow 20:44:45 13° 143° (SE) 3,678 9.8 -35.7°
Drops below altitude 10° 20:46:08 10° 135° (SE) 3,732 - -36.0°
Sets 20:50:15 0° 113° (ESE) 4,227 - -37.0°
